Location: Bas-Clignon
(44.2000°N, 6.6333°E)
Time: 01:52:43
(UTC+00:00)

Cosmos 2360 Rocket - Pass Details

Date: 03 February 2023
Orbit: 832 x 846 km, 71.0° (Epoch: 27 March)

Event Time Altitude Azimuth Distance (km) Brightness Sun altitude
Rises 18:01:25 0° 195° (SSW) 3,370 5.7 -13.9°
Reaches altitude 10° 18:03:50 10° 193° (SSW) 2,442 4.9 -14.3°
Maximum altitude 18:09:24 69° 112° (ESE) 898 2.1 -15.3°
Drops below altitude 10° 18:15:01 10° 30° (NNE) 2,468 4.3 -16.3°
Enters shadow 18:15:23 - 29° (NNE) 2,604 4.4 -16.3°
